Lamar, CO

4:35 PM MST on December 04, 2016 (GMT -0700)
Lamar Municipal

Weather History for KLAA - April, 2013

Change the Weather History Date:

Monday, April 29, 2013

  Actual Average Record
Temperature  
Mean Temperature 65 °F 56 °F  
Max Temperature 87 °F 74 °F 93 °F (1967)
Min Temperature 43 °F 40 °F 23 °F (1925)
Degree Days  
Heating Degree Days 0 9  
Month to date heating degree days 519 382  
Since 1 July heating degree days 5320 5391  
Cooling Degree Days 0 0  
Month to date cooling degree days 0 0  
Year to date cooling degree days 0 0  
Growing Degree Days 16 (Base 50)    
Moisture  
Dew Point 26 °F    
Average Humidity 31    
Maximum Humidity 53    
Minimum Humidity 8    
Precipitation  
Precipitation 0.00 in 0.06 in 0.89 in (1960)
Month to date precipitation 0.07 1.27  
Year to date precipitation 0.33 2.78  
Sea Level Pressure  
Sea Level Pressure 29.59 in    
Wind  
Wind Speed 7 mph (WNW)    
Max Wind Speed 17 mph    
Max Gust Speed 22 mph    
Visibility 10 miles    
Events      
T = Trace of Precipitation, MM = Missing Value Source: NWS Daily Summary

Daily Weather History Graph

Daily Weather History Graph

Search for Another Location

Airport or City:

Trip Planner

Search our weather history database for the weather conditions in past years. The results will help you decide how hot, cold, wet, or windy it might be!

Date:

Astronomy

Apr. 29, 2013 Rise Set
Actual Time 5:56 AM MDT 7:40 PM MDT
Civil Twilight 5:28 AM MDT 8:08 PM MDT
Nautical Twilight 4:54 AM MDT 8:42 PM MDT
Astronomical Twilight 4:17 AM MDT 9:19 PM MDT
Moon No Moon Rise 9:21 AM MDT (4/29)
Length of Visible Light 14h 40m
Length of Day
13h 43m
Waning Gibbous, 79% of the Moon is Illuminated
Apr 29
Waning Gibbous
May 2
Last Quarter
May 9
New
May 17
First Quarter
May 24
Full

Hourly Weather History & Observations

Time (MDT) Temp. Dew Point Humidity Pressure Visibility Wind Dir Wind Speed Gust Speed Precip Events Conditions
12:53 AM 51.1 °F 19.0 °F 28% 29.63 in 10.0 mi Calm Calm - N/A   Clear
1:53 AM 48.9 °F 19.0 °F 31% 29.65 in 10.0 mi North 3.5 mph - N/A   Clear
2:53 AM 51.1 °F 30.0 °F 44% 29.64 in 10.0 mi North 6.9 mph - N/A   Clear
3:53 AM 46.9 °F 30.0 °F 52% 29.66 in 10.0 mi North 8.1 mph - N/A   Clear
4:53 AM 50.0 °F 32.0 °F 50% 29.68 in 10.0 mi North 11.5 mph - N/A   Clear
5:53 AM 52.0 °F 33.1 °F 49% 29.69 in 10.0 mi NE 15.0 mph - N/A   Clear
6:53 AM 52.0 °F 33.1 °F 49% 29.73 in 10.0 mi Calm Calm - N/A   Clear
7:53 AM 55.9 °F 33.1 °F 42% 29.74 in 10.0 mi WNW 4.6 mph - N/A   Clear
8:53 AM 59.0 °F 33.1 °F 38% 29.75 in 10.0 mi WNW 3.5 mph - N/A   Clear
9:53 AM 64.0 °F 34.0 °F 33% 29.73 in 10.0 mi NW 5.8 mph - N/A   Clear
10:53 AM 69.1 °F 34.0 °F 27% 29.69 in 10.0 mi NW 4.6 mph - N/A   Clear
11:53 AM 73.0 °F 32.0 °F 22% 29.67 in 10.0 mi Variable 5.8 mph - N/A   Clear
12:53 PM 77.0 °F 32.0 °F 19% 29.64 in 10.0 mi West 6.9 mph - N/A   Clear
1:53 PM 81.0 °F 30.0 °F 16% 29.60 in 10.0 mi Variable 4.6 mph - N/A   Clear
2:53 PM 82.9 °F 25.0 °F 12% 29.55 in 10.0 mi Variable 3.5 mph 17.3 mph N/A   Clear
3:53 PM 86.0 °F 23.0 °F 10% 29.52 in 10.0 mi West 9.2 mph 17.3 mph N/A   Clear
4:53 PM 86.0 °F 18.0 °F 8% 29.48 in 10.0 mi West 4.6 mph - N/A   Clear
5:53 PM 84.9 °F 15.1 °F 7% 29.45 in 10.0 mi SW 3.5 mph - N/A   Clear
6:53 PM 82.9 °F 16.0 °F 8% 29.45 in 10.0 mi SSE 6.9 mph - N/A   Clear
7:53 PM 73.9 °F 17.1 °F 12% 29.46 in 10.0 mi SE 12.7 mph - N/A   Clear
8:53 PM 73.0 °F 25.0 °F 17% 29.46 in 10.0 mi SSE 15.0 mph - N/A   Clear
9:53 PM 68.0 °F 25.0 °F 20% 29.46 in 10.0 mi South 11.5 mph - N/A   Clear
10:53 PM 66.9 °F 25.0 °F 21% 29.43 in 10.0 mi South 15.0 mph - N/A   Clear
11:53 PM 62.1 °F 21.0 °F 21% 29.42 in 10.0 mi SSW 9.2 mph - N/A   Clear